EW1556 Weather Reports


Display with metric or nautical units.
time (UTC)temp
F
wind
direction
speed
MPH
gust
MPH
rain 1hr
in
rain 24hr
in
rain mn
in
humidity
%
barometer
mb
20260510090054 51 293 1.0 5.0 0.00 0.00 0.00 60 1014.6
20260510084551 51 293 1.0 2.0 0.00 0.00 0.00 60 1014.7
20260510083053 51 290 0.0 2.0 0.00 0.00 0.00 60 1014.7
20260510081548 51 285 0.0 0.0 0.00 0.00 0.00 59 1014.8
20260510080052 53 287 0.0 4.0 0.00 0.00 0.00 55 1014.7
20260510074547 54 295 2.0 4.0 0.00 0.00 0.00 53 1014.8
20260510073048 53 283 3.0 4.0 0.00 0.00 0.00 53 1014.7
20260510071551 53 308 2.0 3.0 0.00 0.00 0.00 55 1014.8
20260510070042 52 269 0.0 1.0 0.00 0.00 0.00 58 1014.7
20260510064539 51 266 0.0 1.0 0.00 0.00 0.00 60 1014.7
20260510063039 53 290 0.0 0.0 0.00 0.00 0.00 57 1014.7
20260510061541 54 291 0.0 2.0 0.00 0.00 0.00 53 1014.7
20260510060038 55 298 1.0 4.0 0.00 0.00 0.00 53 1014.7
20260510054538 55 303 1.0 3.0 0.00 0.00 0.00 51 1014.7
20260510053052 57 288 2.0 2.0 0.00 0.00 0.00 46 1014.7
20260510051543 56 275 0.0 0.0 0.00 0.00 0.00 49 1014.7
20260510050041 58 297 0.0 2.0 0.00 0.00 0.00 46 1014.8
20260510044535 63 315 1.0 3.0 0.00 0.00 0.00 38 1014.7
20260510043042 64 328 1.0 3.0 0.00 0.00 0.00 34 1014.7
20260510041535 65 323 2.0 3.0 0.00 0.00 0.00 35 1014.6
20260510040040 65 333 0.0 3.0 0.00 0.00 0.00 34 1014.4
20260510034534 67 1 0.0 4.0 0.00 0.00 0.00 33 1014.3
20260510033032 67 354 2.0 5.0 0.00 0.00 0.00 33 1014.2
20260510031532 68 337 1.0 3.0 0.00 0.00 0.00 34 1014.3
20260510030031 69 356 0.0 2.0 0.00 0.00 0.00 34 1014.2
20260510024531 69 333 2.0 4.0 0.00 0.00 0.00 35 1014.2
20260510023030 70 354 3.0 7.0 0.00 0.00 0.00 33 1014.1
20260510021538 71 37 4.0 7.0 0.00 0.00 0.00 33 1014.1
20260510020028 72 10 4.0 8.0 0.00 0.00 0.00 32 1014.1
20260510014529 73 18 5.0 11.0 0.00 0.00 0.00 30 1014.2
20260510013027 75 13 6.0 12.0 0.00 0.00 0.00 29 1014.3
20260510011533 77 25 6.0 13.0 0.00 0.00 0.00 27 1014.4
20260510010021 77 10 4.0 10.0 0.00 0.00 0.00 21 1014.4
20260510004526 78 51 2.0 7.0 0.00 0.00 0.00 21 1014.3
20260510003020 78 29 3.0 7.0 0.00 0.00 0.00 21 1014.4
20260510001518 78 16 1.0 6.0 0.00 0.00 0.00 20 1014.5
20260510000019 78 40 5.0 9.0 0.00 0.00 0.00 23 1014.7
20260509234514 78 358 4.0 9.0 0.00 0.00 0.00 21 1014.8
20260509233011 77 57 5.0 12.0 0.00 0.00 0.00 20 1015.0
20260509231509 77 1 4.0 11.0 0.00 0.00 0.00 22 1015.3
20260509230008 77 315 5.0 11.0 0.00 0.00 0.00 24 1015.5
20260509224504 77 61 6.0 10.0 0.00 0.00 0.00 22 1015.8
20260509223103 76 319 1.0 10.0 0.00 0.00 0.00 22 1016.1
20260509221557 76 6 6.0 11.0 0.00 0.00 0.00 22 1016.3
20260509220054 76 34 5.0 10.0 0.00 0.00 0.00 26 1016.4
20260509214614 75 49 6.0 12.0 0.00 0.00 0.00 25 1016.7
20260509213051 76 50 3.0 10.0 0.00 0.00 0.00 28 1016.8
20260509211549 75 43 4.0 10.0 0.00 0.00 0.00 24 1016.9
20260509210046 74 281 0.0 8.0 0.00 0.00 0.00 25 1017.2
20260509204546 74 42 3.0 11.0 0.00 0.00 0.00 28 1017.4
20260509203056 74 127 1.0 7.0 0.00 0.00 0.00 26 1017.5
20260509201541 72 282 0.0 5.0 0.00 0.00 0.00 35 1017.6
20260509200040 73 33 3.0 10.0 0.00 0.00 0.00 35 1017.9
20260509194535 72 136 0.0 7.0 0.00 0.00 0.00 37 1018.2
20260509193033 71 145 1.0 6.0 0.00 0.00 0.00 35 1018.4
20260509191542 71 74 3.0 6.0 0.00 0.00 0.00 35 1018.6
20260509190029 69 356 4.0 9.0 0.00 0.00 0.00 39 1018.7
20260509184534 69 120 2.0 6.0 0.00 0.00 0.00 39 1018.8
20260509183029 68 32 0.0 6.0 0.00 0.00 0.00 40 1019.0
20260509181519 67 166 2.0 7.0 0.00 0.00 0.00 40 1019.2
20260509180018 67 274 0.0 4.0 0.00 0.00 0.00 41 1019.1
20260509174520 66 32 4.0 8.0 0.00 0.00 0.00 43 1019.1
20260509173010 65 75 4.0 7.0 0.00 0.00 0.00 46 1019.3
20260509171509 63 78 2.0 7.0 0.00 0.00 0.00 48 1019.4
20260509170009 63 16 3.0 6.0 0.00 0.00 0.00 51 1019.5
20260509164503 62 87 3.0 6.0 0.00 0.00 0.00 53 1019.6
20260509163110 61 76 3.0 5.0 0.00 0.00 0.00 55 1019.8
20260509161559 60 120 0.0 3.0 0.00 0.00 0.00 57 1020.0
20260509160056 60 267 0.0 0.0 0.00 0.00 0.00 57 1019.9
20260509154553 57 30 0.0 3.0 0.00 0.00 0.00 60 1020.0
20260509153103 56 110 1.0 3.0 0.00 0.00 0.00 61 1020.1
20260509151549 56 172 0.0 1.0 0.00 0.00 0.00 62 1020.1
20260509150044 54 88 0.0 2.0 0.00 0.00 0.00 66 1020.2
20260509144543 54 78 0.0 0.0 0.00 0.00 0.00 67 1020.3
20260509143041 51 242 0.0 0.0 0.00 0.00 0.00 70 1020.1
20260509141541 49 258 0.0 0.0 0.00 0.00 0.00 75 1020.1
20260509140039 47 326 0.0 0.0 0.00 0.00 0.00 79 1020.0
20260509134539 46 326 0.0 0.0 0.00 0.00 0.00 80 1020.1
20260509133036 0 0.0 0.0 0.00 0.00 0.00 1020.1
20260509131533 0 0.0 0.0 0.00 0.00 0.00 1020.0
20260509130037 0 0.0 0.0 0.00 0.09 0.00 1019.5
20260509124538 0 0.0 0.0 0.00 0.09 0.00 1019.5
20260509123026 45 291 1.0 2.0 0.00 0.09 0.00 79 1019.6
20260509121526 45 324 1.0 3.0 0.00 0.09 0.00 80 1019.6
20260509120022 47 296 0.0 4.0 0.00 0.09 0.00 77 1019.5
20260509114522 47 224 1.0 4.0 0.00 0.09 0.00 77 1019.5
20260509113024 45 240 0.0 3.0 0.00 0.09 0.00 79 1019.4
20260509111518 48 231 0.0 3.0 0.00 0.09 0.00 73 1019.4
20260509110017 50 256 4.0 8.0 0.00 0.09 0.00 72 1019.4
20260509104552 49 173 0.0 5.0 0.00 0.09 0.00 73 1019.6
20260509103015 50 290 2.0 8.0 0.00 0.09 0.00 73 1019.5
20260509101521 49 272 4.0 8.0 0.00 0.09 0.00 75 1019.3
20260509100012 47 281 1.0 2.0 0.00 0.09 0.00 79 1019.5
20260509094511 47 282 2.0 4.0 0.00 0.09 0.00 78 1019.6
20260509093010 48 285 3.0 6.0 0.00 0.09 0.00 78 1019.6
20260509091510 46 280 2.0 4.0 0.00 0.09 0.00 80 1019.7